Des Moines, IA

3:31 PM CDT on April 29, 2017 (GMT -0500)
Des Moines International

Weather History for KDSM - January, 2013

Change the Weather History Date:

Friday, January 4, 2013

  Actual Average Record
Temperature  
Mean Temperature 24 °F 23 °F  
Max Temperature 35 °F 31 °F 55 °F (1880)
Min Temperature 12 °F 15 °F -25 °F (1884)
Degree Days  
Heating Degree Days 41 42  
Month to date heating degree days 186 168  
Since 1 July heating degree days 2337 2635  
Cooling Degree Days 0 0  
Month to date cooling degree days 0 0  
Year to date cooling degree days 0 0  
Moisture  
Dew Point 17 °F    
Average Humidity 70    
Maximum Humidity 84    
Minimum Humidity 56    
Precipitation  
Precipitation 0.00 in 0.04 in 0.96 in (1910)
Month to date precipitation T 0.14  
Year to date precipitation T 0.14  
Snow  
Snow 0.00 in 0.20 in 9.00 in (1910)
Month to date snowfall 0.1 1.0  
Since 1 July snowfall 15.6 12.9  
Snow Depth 5.00 in    
Sea Level Pressure  
Sea Level Pressure 30.26 in    
Wind  
Wind Speed 9 mph (SW)    
Max Wind Speed 16 mph    
Max Gust Speed 19 mph    
Visibility 10 miles    
Events      
T = Trace of Precipitation, MM = Missing Value Source: NWS Daily Summary

Daily Weather History Graph

Daily Weather History Graph

Search for Another Location

Airport or City:

Trip Planner

Search our weather history database for the weather conditions in past years. The results will help you decide how hot, cold, wet, or windy it might be!

Date:

Astronomy

Jan. 04, 2013 Rise Set
Actual Time 7:41 AM CST 4:58 PM CST
Civil Twilight 7:10 AM CST 5:29 PM CST
Nautical Twilight 6:35 AM CST 6:04 PM CST
Astronomical Twilight 6:01 AM CST 6:37 PM CST
Moon No Moon Rise 11:18 AM CST (1/4)
Length of Visible Light 10h 19m
Length of Day
9h 17m
Waning Gibbous, 55% of the Moon is Illuminated
Jan 4
Waning Gibbous
Jan 4
Last Quarter
Jan 11
New
Jan 18
First Quarter
Jan 26
Full

Hourly Weather History & Observations

Time (CST) Temp. Windchill Dew Point Humidity Pressure Visibility Wind Dir Wind Speed Gust Speed Precip Events Conditions
12:54 AM 12.9 °F -0.2 °F 8.1 °F 81% 30.33 in 10.0 mi SSW 10.4 mph - N/A   Clear
1:54 AM 12.9 °F 2.6 °F 8.1 °F 81% 30.33 in 10.0 mi SW 6.9 mph - N/A   Clear
2:54 AM 15.1 °F 6.4 °F 10.0 °F 80% 30.32 in 10.0 mi SSW 5.8 mph - N/A   Clear
3:54 AM 15.1 °F 5.2 °F 10.0 °F 80% 30.31 in 10.0 mi SSW 6.9 mph - N/A   Clear
4:54 AM 17.1 °F 6.6 °F 12.0 °F 81% 30.30 in 10.0 mi SW 8.1 mph - N/A   Clear
5:54 AM 17.1 °F 6.6 °F 12.9 °F 84% 30.30 in 9.0 mi SW 8.1 mph - N/A   Clear
6:54 AM 18.0 °F 6.9 °F 12.9 °F 81% 30.28 in 10.0 mi SW 9.2 mph - N/A   Clear
7:54 AM 19.0 °F 7.5 °F 14.0 °F 81% 30.28 in 10.0 mi SW 10.4 mph - N/A   Clear
8:54 AM 21.9 °F 11.0 °F 16.0 °F 78% 30.27 in 10.0 mi SW 10.4 mph - N/A   Clear
9:54 AM 25.0 °F 14.8 °F 17.1 °F 72% 30.29 in 10.0 mi WSW 10.4 mph - N/A   Clear
10:54 AM 28.0 °F 17.0 °F 18.0 °F 66% 30.30 in 10.0 mi WSW 13.8 mph - N/A   Clear
11:54 AM 28.9 °F 18.6 °F 19.0 °F 67% 30.27 in 10.0 mi SW 12.7 mph - N/A   Clear
12:54 PM 30.9 °F 20.7 °F 21.0 °F 67% 30.25 in 10.0 mi SW 13.8 mph - N/A   Clear
1:54 PM 34.0 °F 25.0 °F 21.9 °F 61% 30.23 in 10.0 mi WSW 12.7 mph - N/A   Clear
2:54 PM 35.1 °F 26.4 °F 21.9 °F 59% 30.22 in 10.0 mi WSW 12.7 mph - N/A   Clear
3:54 PM 35.1 °F 27.9 °F 21.9 °F 59% 30.23 in 10.0 mi SW 9.2 mph - N/A   Clear
4:54 PM 32.0 °F 25.6 °F 21.0 °F 64% 30.23 in 10.0 mi WSW 6.9 mph - N/A   Clear
5:54 PM 32.0 °F 25.6 °F 21.0 °F 64% 30.23 in 10.0 mi SSW 6.9 mph - N/A   Clear
6:54 PM 32.0 °F 26.4 °F 21.0 °F 64% 30.24 in 10.0 mi South 5.8 mph - N/A   Clear
7:54 PM 27.0 °F 20.5 °F 19.0 °F 72% 30.23 in 10.0 mi South 5.8 mph - N/A   Clear
8:54 PM 28.9 °F 20.4 °F 19.9 °F 69% 30.22 in 10.0 mi SSW 9.2 mph - N/A   Clear
9:54 PM 27.0 °F 19.5 °F 19.9 °F 75% 30.22 in 10.0 mi SSW 6.9 mph - N/A   Clear
10:54 PM 27.0 °F 18.0 °F 19.9 °F 75% 30.21 in 10.0 mi SSW 9.2 mph - N/A   Clear
11:54 PM 27.0 °F 21.6 °F 19.9 °F 75% 30.20 in 10.0 mi SSW 4.6 mph - N/A   Mostly Cloudy